Lahr, Germany

7:18 AM CET on November 20, 2019 (GMT +0100)
Lahr

Weather History for EDTL - September, 2019

Change the Weather History Date:

Thursday, September 5, 2019

  Actual Average (WUND) Record (WUND)
Temperature  
Mean Temperature 63 °F -  
Max Temperature 68 °F - - (-1)
Min Temperature 58 °F - - (-1)
Degree Days  
Heating Degree Days 2    
Growing Degree Days 13 (Base 50)    
Moisture  
Dew Point 48 °F    
Average Humidity 58    
Maximum Humidity 77    
Minimum Humidity 36    
Precipitation  
Precipitation 0.00 in - - ()
Sea Level Pressure  
Sea Level Pressure 30.13 in    
Wind  
Wind Speed 5 mph ()    
Max Wind Speed 13 mph    
Max Gust Speed -    
Visibility 9.9 miles    
Events Rain    
Averages and records for this station are not official NWS values.
T = Trace of Precipitation, MM = Missing Value Source: Averaged Metar Reports

Daily Weather History Graph

Daily Weather History Graph

Search for Another Location

Airport or City:

Astronomy

Sep. 05, 2019 Rise Set
Actual Time 6:51 AM CEST 8:02 PM CEST
Civil Twilight 6:18 AM CEST 8:35 PM CEST
Nautical Twilight 5:40 AM CEST 9:13 PM CEST
Astronomical Twilight 4:58 AM CEST 9:54 PM CEST
Moon 2:12 PM CEST (9/5) 11:33 PM CEST (9/5)
Length of Visible Light 14h 16m
Length of Day
13h 11m
Waxing Crescent, 42% of the Moon is Illuminated
Sep 5
Waxing Crescent
Sep 6
First Quarter
Sep 14
Full
Sep 22
Last Quarter
Sep 28
New

Hourly Weather History & Observations

Time (CEST) Temp. Dew Point Humidity Pressure Visibility Wind Dir Wind Speed Gust Speed Precip Events Conditions
12:00 AM 61 °F 50 °F 58% 30.00 in 25 mi SSE 2.2 mph - -  
1:00 AM 60 °F 51 °F 63% 30.01 in 22 mi North 2.2 mph - -   Overcast
3:00 AM 62 °F 53 °F 66% 30.03 in 22 mi North 4.5 mph - -   Overcast
6:00 AM 58 °F 52 °F 73% 30.07 in 19 mi NE 4.5 mph - - Rain Rain
7:00 AM 58 °F 52 °F 74% 30.09 in 19 mi NE 2.2 mph - - Rain Rain
7:20 AM 59.0 °F 51.8 °F 77% 30.09 in 6.2 mi North 3.5 mph - N/A   Overcast
7:50 AM 59.0 °F 50.0 °F 72% 30.09 in 6.2 mi North 6.9 mph - N/A   Overcast
8:20 AM 59.0 °F 50.0 °F 72% 30.12 in 6.2 mi NNE 5.8 mph - N/A   Overcast
8:50 AM 59.0 °F 50.0 °F 72% 30.12 in 6.2 mi North 5.8 mph - N/A   Mostly Cloudy
9:00 AM 58 °F 50 °F 68% 30.13 in 19 mi NNE 4.5 mph - -   Overcast
9:20 AM 59.0 °F 50.0 °F 72% 30.12 in - North 6.9 mph - N/A   Clear
9:50 AM 59.0 °F 50.0 °F 72% 30.15 in - NNW 5.8 mph - N/A   Clear
10:00 AM 60 °F 48 °F 55% 30.14 in 19 mi NNW 4.5 mph - -   Overcast
10:20 AM 60.8 °F 50.0 °F 68% 30.12 in - NNW 4.6 mph - N/A   Clear
10:50 AM 62.6 °F 50.0 °F 63% 30.15 in - NW 5.8 mph - N/A   Clear
11:20 AM 62.6 °F 48.2 °F 59% 30.15 in 6.2 mi NW 5.8 mph - N/A   Mostly Cloudy
11:50 AM 64.4 °F 48.2 °F 56% 30.15 in 6.2 mi NNW 9.2 mph - N/A   Mostly Cloudy
12:00 PM 64 °F 47 °F 43% 30.15 in 19 mi NNW 8.9 mph - -   Overcast
12:20 PM 62.6 °F 48.2 °F 59% 30.15 in 6.2 mi NNW 6.9 mph - N/A   Mostly Cloudy
12:50 PM 66.2 °F 50.0 °F 56% 30.15 in 6.2 mi NNW 5.8 mph - N/A   Mostly Cloudy
1:20 PM 64.4 °F 48.2 °F 56% 30.15 in 6.2 mi NNW 10.4 mph - N/A   Mostly Cloudy
1:50 PM 62.6 °F 48.2 °F 59% 30.15 in 6.2 mi NW 8.1 mph - N/A   Mostly Cloudy
2:20 PM 66.2 °F 48.2 °F 52% 30.15 in 6.2 mi NNW 9.2 mph - N/A   Mostly Cloudy
2:50 PM 66.2 °F 46.4 °F 49% 30.15 in 6.2 mi NNW 10.4 mph - N/A   Scattered Clouds
3:00 PM 67 °F 46 °F 36% 30.16 in 16 mi North 13.4 mph - -   Overcast
3:20 PM 66.2 °F 46.4 °F 49% 30.15 in 6.2 mi NNW 5.8 mph - N/A   Scattered Clouds
3:50 PM 68.0 °F 48.2 °F 49% 30.15 in 6.2 mi North 6.9 mph - N/A   Scattered Clouds
4:20 PM 66.2 °F 44.6 °F 46% 30.15 in - NNW 8.1 mph - N/A   Clear
5:20 PM 66.2 °F 44.6 °F 46% 30.15 in - NW 9.2 mph - N/A   Clear
5:50 PM 66.2 °F 46.4 °F 49% 30.15 in - NNW 5.8 mph - N/A   Clear
6:20 PM 66.2 °F 42.8 °F 43% 30.15 in - NW 10.4 mph - N/A   Clear
6:50 PM 66.2 °F 44.6 °F 46% 30.18 in - NW 5.8 mph - N/A   Clear
7:20 PM 66.2 °F 44.6 °F 46% 30.18 in - WNW 3.5 mph - N/A   Clear
7:50 PM 64.4 °F 44.6 °F 49% 30.18 in - WNW 4.6 mph - N/A   Clear